Location: *
(45.4590°N, 16.3650°E)
Time: 16:33:25
(UTC+00:00)

STARLINK-1098 - Pass Details

Date: 17 January 2020
Orbit: 549 x 550 km, 53.0° (Epoch: 21 February)

Event Time Altitude Azimuth Distance (km) Brightness Sun altitude
Rises 16:07:31 0° 221° (SW) 2,702 8.5 -5.2°
Reaches altitude 10° 16:09:47 10° 216° (SW) 1,812 7.4 -5.6°
Maximum altitude 16:13:46 50° 141° (SE) 698 4.1 -6.2°
Drops below altitude 10° 16:17:47 10° 65° (ENE) 1,821 5.6 -6.9°
Enters shadow 16:18:03 - 64° (ENE) 1,926 5.7 -6.9°
